Regional Weather Roundup
Issued by NWS

Home | Current Version | Previous Version | Text Only | Print | Product List | Glossary Off
Versions: 1 2 3 4 5 6 7 8 9 10 11 12 13 14 15 16 17 18 19 20 21 22 23 24 25 26 27 28 29 30 31 32 33 34 35 36 37 38 39 40 41 42 43 44 45 46 47 48 49 50

000
ASUS45 KBOU 021807
RWRCO

WEATHER ROUNDUP FOR COLORADO
NATIONAL WEATHER SERVICE DENVER/BOULDER CO
1100 AM MST FRI DEC 02 2016

NOTE: "FAIR" INDICATES FEW OR NO CLOUDS BELOW 12000 FEET WITH NO
SIGNIFICANT WEATHER AND/OR OBSTRUCTIONS TO VISIBILITY.

COZ001>005-013-030-031-021900-
...NORTHWEST COLORADO...

CITY           SKY/WX    TMP DP  RH WIND       PRES   REMARKS
CRAIG          CLOUDY    20  15  81 CALM      30.15F
HAYDEN         FAIR      18  12  79 W6        30.12S WCI   9
MEEKER         CLOUDY    21  18  88 W5        30.11F WCI  15
MOUNT WERNER   NOT AVBL
STEAMBOAT SPGS CLOUDY    18   9  69 CALM      30.10F
WALDEN           N/A     18  14  86 NW8       30.08F WCI   7
$$

COZ006>008-011-021900-
...WEST CENTRAL VALLEYS...

CITY           SKY/WX    TMP DP  RH WIND       PRES   REMARKS
GRAND JUNCTION CLOUDY    35  22  58 SE5       30.11S WCI  31
MONTROSE       CLOUDY    31  17  56 NW5       30.11F WCI  26
EAGLE          PTSUNNY   27  18  69 CALM      30.10F
RIFLE          CLOUDY    30  20  66 CALM      30.10F
DELTA          NOT AVBL
NUCLA          CLOUDY    32  18  55 CALM      30.10S
$$

COZ017>023-064>068-021900-
...SOUTHWEST COLORADO...

CITY           SKY/WX    TMP DP  RH WIND       PRES   REMARKS
DURANGO        FAIR      36  16  44 E8        30.01S
CORTEZ         FAIR      35  19  52 CALM      30.01F
PAGOSA SPRINGS FAIR      30  15  53 CALM      30.04S
TELLURIDE      CLOUDY    23  14  70 CALM      30.01S HAZE
WOLF CREEK PAS LGT SNOW  12  12 100 SW7       30.04S VSB 3/4 WCI   2
$$

COZ009-010-012-014-032>034-037-058>063-021900-
...CENTRAL COLORADO...

CITY           SKY/WX    TMP DP  RH WIND       PRES   REMARKS
ASPEN          FAIR      22  13  68 CALM      30.02F
BUENA VISTA    LGT SNOW  20  14  79 E3        30.11R
COPPER MTN     FAIR      18   5  57 MISG      29.96F
BERTHOUD PASS  CLOUDY     1  -9  60 E31G38    29.96S WCI -24
COTTONWOOD PAS LGT SNOW  19  18  93 E5        30.05R WCI  13
GUNNISON       FLURRIES  18  11  74 CALM      30.06F
KREMMLING      CLOUDY    27  19  74 CALM      30.09F
LEADVILLE      MIX PCPN  15   8  73 S13       30.00F WCI   1
MONARCH PASS     N/A      9   3  78 NE8       30.10S WCI  -4
SALIDA         CLOUDY    20  15  81 CALM      30.20S
SUNLIGHT       LGT SNOW N/A N/A N/A MISG      30.02F
WILKERSON PASS LGT SNOW  12   9  85 CALM      30.05S
$$

COZ069>075-021900-
...SAN LUIS VALLEY/SANGRE DE CRISTO MOUNTAINS...

CITY           SKY/WX    TMP DP  RH WIND       PRES   REMARKS
ALAMOSA        LGT SNOW  20  13  74 CALM      30.08S
LA VETA PASS   LGT SNOW  16  10  79 SW8       30.05F VSB 3/4 WCI   5
SAGUACHE       LGT SNOW  25  14  63 CALM      30.08S
$$

COZ035-036-038>040-021900-
...NORTHERN COLORADO FRONT RANGE...

CITY           SKY/WX    TMP DP  RH WIND       PRES   REMARKS
DENVER INTL AP CLOUDY    32  19  58 E8        30.19F WCI  25
DMNS CITY PARK   N/A     32  15  50 E8G18     30.19F WCI  24
AURORA         CLOUDY    31  19  60 E9        30.19S WCI  23
FRONT RANGE AP NOT AVBL
ERIE MUNI ARPT CLOUDY    32  22  66 CALM      30.21F
BOULDER MUN AP LGT SNOW  32  23  69 SE7       30.20S WCI  26
CENTENNIAL     CLOUDY    29  11  47 CALM      30.17F
BROOMFIELD     CLOUDY    30  19  64 SE3       30.20S
FORT COLLINS   FAIR      32  18  55 S7        30.21F WCI  26
LONGMONT       CLOUDY    36  22  57 S7        30.23S
$$

COZ041-046-047-076>085-087-088-021900-
...PIKES PEAK/PALMER DIVIDE AND SOUTHERN FOOTHILLS...

CITY           SKY/WX    TMP DP  RH WIND       PRES   REMARKS
COLO. SPRINGS  LGT SNOW  27  20  75 SE8       30.19R FOG     WCI  19
A. F. ACADEMY  CLOUDY    28  12  50 S7        30.15S WCI  21
SCHRIEVER AFB  NOT AVBL
ELLICOTT       CLOUDY   N/A N/A N/A SE10      30.16R
FALCON         LGT SNOW  27  17  65 S9G18     30.17R WCI  17
FORT CARSON    LGT SNOW  29  17  62 VRB3      30.18R
LIMON          CLOUDY    32  16  51 SW7       30.20R WCI  26
MONUMENT HILL  CLOUDY    27  12  54 SE10      30.16S WCI  17
TRINIDAD       CLOUDY    33   8  35 N5        30.17S WCI  29
$$

COZ042>045-048>051-090-091-021900-
...NORTHEAST COLORADO...

CITY           SKY/WX    TMP DP  RH WIND       PRES   REMARKS
GREELEY ARPT   FAIR      32  16  51 CALM      30.23F
AKRON          CLOUDY    35  17  47 NE6       30.20F WCI  30
BURLINGTON     PTSUNNY   36  17  46 N5        30.21S
WRAY           FAIR      41  21  45 E6        30.24
STERLING       FAIR      36  23  60 E3        30.22F
HOLYOKE        FAIR      41  27  56 N6        30.24F
FORT MORGAN    CLOUDY    35  20  53 CALM      30.22F
$$

COZ086-089-092>099-021900-
...SOUTHEAST COLORADO...

CITY           SKY/WX    TMP DP  RH WIND       PRES   REMARKS
PUEBLO         CLOUDY    30  13  49 W3        30.21R
LA JUNTA       FAIR      28  14  55 CALM      30.23R
LAMAR          PTSUNNY   32  16  51 VRB5      30.23R WCI  27
SPRINGFIELD      N/A     41  13  31 SE12      30.18S
$$



USA.gov is the U.S. government's official web portal to all federal, state and local government web resources and services.